AIST 2

导读

AIST 2卫星是独联体(CIS)地区研制的科学技术卫星,于2013年4月19日08:00发射入轨,主要开展空间环境观测与技术验证任务,旨在推动独联体国家航天领域技术发展,积累低轨道运行数据,服务后续微小卫星研发,拓展对地观测与空间科学研究能力,是独联体航天合作框架下的小型技术试验项目。

Basic Information
目录编号:
39133
目录名称:
AIST 2
国际标识:
2013-015D
轨道中心:
EARTH
卫星名称:
AIST 2
卫星全名:
--
卫星状态:
在轨 (已飞行4805 天)
发射日期:
2013-04-19 UTC
国别 :
俄罗斯(独联体) (CIS)
星等 :
--
Orbit Information
数据来源 国际轨道数据
星历时间: 2026-06-15T05:32:56+0800
6小时前
查看轨道信息
半长轴: 6865.072km
偏心率: 0.0018682
轨道倾角: 64.870°
近地点辐角 247.262°
升交点赤经 264.817°
平近点角 112.653°
近地点: 474.109km
远地点: 499.761km
周期: 94.347分钟
每日圈数: 15.262833
Detailed Information
使用方式:
暂无
2D Orbit Map
3D Orbit Map
Orbit Altitude Analysis Chart
Orbit Inclination Analysis Chart
Orbit Comprehensive Analysis Chart
View Comprehensive Chart